Location: Steilacoom
(47.1700°N, 122.5700°W)
Time: 14:26:30
(UTC-08:00)

ISS - Pass Details

Date: 20 November 2019
Orbit: 412 x 421 km, 51.6° (Epoch: 05 December)

Event Time Altitude Azimuth Distance (km) Brightness Sun altitude
Rises 18:43:20 0° 205° (SSW) 2,345 0.5 -22.3°
Reaches altitude 10° 18:45:44 10° 189° (S) 1,489 -0.8 -22.7°
Enters shadow 18:45:59 11° 186° (S) 1,413 -1.0 -22.8°
